Time,TemperatureF,DewpointF,PressureIn,WindDirection,WindDirectionDegrees,WindSpeedMPH,WindSpeedGustMPH,Humidity,HourlyPrecipIn,Conditions,Clouds,dailyrainin,SoftwareType,DateUTC
2013-04-30 00:00:00,64.7,59.8,29.77,SSE,156,9.0,9.0,84,0.00,,,0.00,Wunderground v.1.15,2013-04-30 05:00:00,
2013-04-30 00:06:00,64.7,59.8,29.77,South,185,9.0,14.0,84,0.00,,,0.00,Wunderground v.1.15,2013-04-30 05:06:00,
2013-04-30 00:12:00,64.6,60.0,29.77,South,185,9.0,15.0,85,0.00,,,0.00,Wunderground v.1.15,2013-04-30 05:12:00,
2013-04-30 00:18:00,64.7,60.1,29.77,SSW,201,9.0,15.0,85,0.00,,,0.00,Wunderground v.1.15,2013-04-30 05:18:00,
2013-04-30 00:24:00,64.6,60.0,29.77,SSW,197,9.0,16.0,85,0.00,,,0.00,Wunderground v.1.15,2013-04-30 05:24:00,
2013-04-30 00:30:00,64.6,60.0,29.77,South,191,10.0,10.0,85,0.00,,,0.00,Wunderground v.1.15,2013-04-30 05:30:00,
2013-04-30 00:36:00,64.6,60.0,29.77,SSW,204,9.0,16.0,85,0.00,,,0.00,Wunderground v.1.15,2013-04-30 05:36:00,
2013-04-30 00:42:00,64.5,59.9,29.77,SSE,152,10.0,10.0,85,0.00,,,0.00,Wunderground v.1.15,2013-04-30 05:42:00,
2013-04-30 00:48:00,64.4,59.8,29.77,SSE,168,10.0,16.0,85,0.00,,,0.00,Wunderground v.1.15,2013-04-30 05:48:00,
2013-04-30 00:54:00,64.3,59.7,29.77,South,188,10.0,11.0,85,0.00,,,0.00,Wunderground v.1.15,2013-04-30 05:54:00,
2013-04-30 01:00:00,64.2,59.9,29.76,SSE,151,9.0,9.0,86,0.00,,,0.00,Wunderground v.1.15,2013-04-30 06:00:00,
2013-04-30 01:06:00,64.0,59.7,29.77,South,183,9.0,9.0,86,0.00,,,0.00,Wunderground v.1.15,2013-04-30 06:06:00,
2013-04-30 01:12:00,64.0,59.7,29.77,SSE,165,9.0,15.0,86,0.00,,,0.00,Wunderground v.1.15,2013-04-30 06:12:00,
2013-04-30 01:18:00,64.0,59.7,29.77,SE,141,9.0,15.0,86,0.00,,,0.00,Wunderground v.1.15,2013-04-30 06:18:00,
2013-04-30 01:24:00,63.9,59.6,29.76,SE,146,9.0,16.0,86,0.00,,,0.00,Wunderground v.1.15,2013-04-30 06:24:00,
2013-04-30 01:30:00,63.9,59.6,29.77,SSW,208,9.0,9.0,86,0.00,,,0.00,Wunderground v.1.15,2013-04-30 06:30:00,
2013-04-30 01:36:00,63.8,59.9,29.76,SSE,157,8.0,18.0,87,0.00,,,0.00,Wunderground v.1.15,2013-04-30 06:36:00,
2013-04-30 01:42:00,63.8,59.9,29.76,South,171,9.0,16.0,87,0.00,,,0.00,Wunderground v.1.15,2013-04-30 06:42:00,
2013-04-30 01:48:00,63.8,59.9,29.76,South,187,9.0,16.0,87,0.00,,,0.00,Wunderground v.1.15,2013-04-30 06:48:00,
2013-04-30 01:54:00,63.8,59.9,29.76,South,175,9.0,15.0,87,0.00,,,0.00,Wunderground v.1.15,2013-04-30 06:54:00,
2013-04-30 02:00:00,63.9,59.6,29.76,South,171,9.0,10.0,86,0.00,,,0.00,Wunderground v.1.15,2013-04-30 07:00:00,
2013-04-30 02:06:00,63.9,59.6,29.76,South,169,9.0,13.0,86,0.00,,,0.00,Wunderground v.1.15,2013-04-30 07:06:00,
2013-04-30 02:12:00,63.8,59.5,29.76,SSE,154,9.0,10.0,86,0.00,,,0.00,Wunderground v.1.15,2013-04-30 07:12:00,
2013-04-30 02:18:00,63.9,59.6,29.76,South,177,9.0,11.0,86,0.00,,,0.00,Wunderground v.1.15,2013-04-30 07:18:00,
2013-04-30 02:24:00,63.9,59.6,29.76,SSW,208,8.0,11.0,86,0.00,,,0.00,Wunderground v.1.15,2013-04-30 07:24:00,
2013-04-30 02:30:00,63.8,59.5,29.76,South,169,8.0,11.0,86,0.00,,,0.00,Wunderground v.1.15,2013-04-30 07:30:00,
2013-04-30 02:35:00,63.8,59.5,29.77,SSE,163,8.0,9.0,86,0.00,,,0.00,Wunderground v.1.15,2013-04-30 07:35:00,
2013-04-30 02:41:00,63.9,59.6,29.76,South,176,9.0,13.0,86,0.00,,,0.00,Wunderground v.1.15,2013-04-30 07:41:00,
2013-04-30 02:47:00,63.9,59.6,29.77,SSW,195,9.0,9.0,86,0.00,,,0.00,Wunderground v.1.15,2013-04-30 07:47:00,
2013-04-30 02:53:00,63.9,59.6,29.77,SSW,199,9.0,10.0,86,0.00,,,0.00,Wunderground v.1.15,2013-04-30 07:53:00,
2013-04-30 03:02:00,64.0,59.7,29.77,SSW,202,10.0,10.0,86,0.00,,,0.00,Wunderground v.1.15,2013-04-30 08:02:00,
2013-04-30 03:08:00,63.9,59.3,29.77,SSW,200,9.0,10.0,85,0.00,,,0.00,Wunderground v.1.15,2013-04-30 08:08:00,
2013-04-30 03:13:00,63.9,59.3,29.77,SSW,196,8.0,8.0,85,0.00,,,0.00,Wunderground v.1.15,2013-04-30 08:13:00,
2013-04-30 03:19:00,63.8,59.2,29.78,SSE,154,9.0,9.0,85,0.00,,,0.00,Wunderground v.1.15,2013-04-30 08:19:00,
2013-04-30 03:25:00,63.7,59.1,29.78,South,187,8.0,8.0,85,0.00,,,0.00,Wunderground v.1.15,2013-04-30 08:25:00,
2013-04-30 03:30:00,63.6,59.0,29.78,SSW,192,8.0,11.0,85,0.00,,,0.00,Wunderground v.1.15,2013-04-30 08:30:00,
2013-04-30 03:36:00,63.5,59.2,29.78,SSW,199,8.0,9.0,86,0.00,,,0.00,Wunderground v.1.15,2013-04-30 08:36:00,
2013-04-30 03:41:00,63.5,59.2,29.78,South,175,8.0,13.0,86,0.00,,,0.00,Wunderground v.1.15,2013-04-30 08:41:00,
2013-04-30 03:47:00,63.4,59.1,29.78,South,185,8.0,10.0,86,0.00,,,0.00,Wunderground v.1.15,2013-04-30 08:47:00,
2013-04-30 03:53:00,63.3,59.0,29.77,South,185,7.0,7.0,86,0.00,,,0.00,Wunderground v.1.15,2013-04-30 08:53:00,
2013-04-30 03:59:00,63.2,58.9,29.77,South,186,8.0,13.0,86,0.00,,,0.00,Wunderground v.1.15,2013-04-30 08:59:00,
2013-04-30 04:05:00,63.2,58.9,29.77,SSE,167,8.0,11.0,86,0.00,,,0.00,Wunderground v.1.15,2013-04-30 09:05:00,
2013-04-30 04:11:00,63.0,58.7,29.78,South,173,8.0,8.0,86,0.00,,,0.00,Wunderground v.1.15,2013-04-30 09:11:00,
2013-04-30 04:17:00,62.9,58.6,29.79,South,182,8.0,10.0,86,0.00,,,0.00,Wunderground v.1.15,2013-04-30 09:17:00,
2013-04-30 04:23:00,62.8,58.5,29.78,SSE,160,7.0,8.0,86,0.00,,,0.00,Wunderground v.1.15,2013-04-30 09:23:00,
2013-04-30 04:29:00,62.7,58.5,29.78,SSW,193,7.0,10.0,86,0.00,,,0.00,Wunderground v.1.15,2013-04-30 09:29:00,
2013-04-30 04:35:00,62.6,58.4,29.78,South,181,6.0,10.0,86,0.00,,,0.00,Wunderground v.1.15,2013-04-30 09:35:00,
2013-04-30 04:41:00,62.5,58.3,29.79,SSW,194,6.0,7.0,86,0.00,,,0.00,Wunderground v.1.15,2013-04-30 09:41:00,
2013-04-30 04:47:00,62.3,58.1,29.79,South,190,6.0,7.0,86,0.00,,,0.00,Wunderground v.1.15,2013-04-30 09:47:00,
2013-04-30 04:53:00,62.2,58.0,29.79,ESE,118,5.0,6.0,86,0.00,,,0.00,Wunderground v.1.15,2013-04-30 09:53:00,
2013-04-30 04:59:00,62.2,58.3,29.79,SSE,151,6.0,10.0,87,0.00,,,0.00,Wunderground v.1.15,2013-04-30 09:59:00,
2013-04-30 05:05:00,62.0,58.1,29.79,SE,141,6.0,6.0,87,0.00,,,0.00,Wunderground v.1.15,2013-04-30 10:05:00,
2013-04-30 05:11:00,61.9,58.0,29.79,SSW,199,6.0,8.0,87,0.00,,,0.00,Wunderground v.1.15,2013-04-30 10:11:00,
2013-04-30 05:17:00,61.8,57.9,29.79,South,182,7.0,10.0,87,0.00,,,0.00,Wunderground v.1.15,2013-04-30 10:17:00,
2013-04-30 05:23:00,61.7,57.8,29.79,South,181,6.0,9.0,87,0.00,,,0.00,Wunderground v.1.15,2013-04-30 10:23:00,
2013-04-30 05:29:00,61.7,57.8,29.79,South,169,7.0,9.0,87,0.00,,,0.00,Wunderground v.1.15,2013-04-30 10:29:00,
2013-04-30 05:35:00,61.6,57.7,29.79,South,171,6.0,10.0,87,0.00,,,0.00,Wunderground v.1.15,2013-04-30 10:35:00,
2013-04-30 05:41:00,61.5,57.6,29.80,SSE,163,6.0,8.0,87,0.00,,,0.00,Wunderground v.1.15,2013-04-30 10:41:00,
2013-04-30 05:47:00,61.4,57.5,29.80,SSE,166,6.0,9.0,87,0.00,,,0.00,Wunderground v.1.15,2013-04-30 10:47:00,
2013-04-30 05:53:00,61.4,57.5,29.80,SSE,162,6.0,11.0,87,0.00,,,0.00,Wunderground v.1.15,2013-04-30 10:53:00,
2013-04-30 05:59:00,61.4,57.5,29.80,SSE,165,6.0,11.0,87,0.00,,,0.00,Wunderground v.1.15,2013-04-30 10:59:00,
2013-04-30 06:04:00,61.4,57.5,29.80,SE,136,6.0,9.0,87,0.00,,,0.00,Wunderground v.1.15,2013-04-30 11:04:00,
2013-04-30 06:10:00,61.3,57.4,29.80,SSE,150,7.0,9.0,87,0.00,,,0.00,Wunderground v.1.15,2013-04-30 11:10:00,
2013-04-30 06:16:00,61.3,57.4,29.80,SSE,158,6.0,9.0,87,0.00,,,0.00,Wunderground v.1.15,2013-04-30 11:16:00,
2013-04-30 06:22:00,61.2,57.3,29.81,SSE,163,6.0,9.0,87,0.00,,,0.00,Wunderground v.1.15,2013-04-30 11:22:00,
2013-04-30 06:28:00,61.3,57.4,29.81,South,171,6.0,9.0,87,0.00,,,0.00,Wunderground v.1.15,2013-04-30 11:28:00,
2013-04-30 06:34:00,61.3,57.4,29.81,SSE,163,7.0,10.0,87,0.00,,,0.00,Wunderground v.1.15,2013-04-30 11:34:00,
2013-04-30 06:40:00,61.4,57.5,29.81,SSE,151,6.0,6.0,87,0.00,,,0.00,Wunderground v.1.15,2013-04-30 11:40:00,
2013-04-30 06:46:00,61.5,57.6,29.82,SE,131,6.0,11.0,87,0.00,,,0.00,Wunderground v.1.15,2013-04-30 11:46:00,
2013-04-30 06:52:00,61.5,57.6,29.82,SSW,192,5.0,5.0,87,0.00,,,0.00,Wunderground v.1.15,2013-04-30 11:52:00,
2013-04-30 06:58:00,61.6,57.4,29.82,SSE,157,5.0,6.0,86,0.00,,,0.00,Wunderground v.1.15,2013-04-30 11:58:00,
2013-04-30 07:04:00,61.9,58.0,29.83,SSE,155,5.0,8.0,87,0.00,,,0.00,Wunderground v.1.15,2013-04-30 12:04:00,
2013-04-30 07:10:00,62.3,58.1,29.83,South,172,6.0,6.0,86,0.00,,,0.00,Wunderground v.1.15,2013-04-30 12:10:00,
2013-04-30 07:16:00,62.7,58.1,29.83,South,185,7.0,7.0,85,0.00,,,0.00,Wunderground v.1.15,2013-04-30 12:16:00,
2013-04-30 07:22:00,63.2,58.3,29.84,SSE,150,6.0,9.0,84,0.00,,,0.00,Wunderground v.1.15,2013-04-30 12:22:00,
2013-04-30 07:28:00,63.7,58.8,29.84,South,173,6.0,9.0,84,0.00,,,0.00,Wunderground v.1.15,2013-04-30 12:28:00,
2013-04-30 07:34:00,64.3,59.0,29.84,South,177,6.0,9.0,83,0.00,,,0.00,Wunderground v.1.15,2013-04-30 12:34:00,
2013-04-30 07:40:00,64.6,59.0,29.84,South,174,6.0,8.0,82,0.00,,,0.00,Wunderground v.1.15,2013-04-30 12:40:00,
2013-04-30 07:46:00,64.8,59.2,29.84,South,179,6.0,10.0,82,0.00,,,0.00,Wunderground v.1.15,2013-04-30 12:46:00,
2013-04-30 07:52:00,64.9,59.3,29.84,SSE,168,7.0,7.0,82,0.00,,,0.00,Wunderground v.1.15,2013-04-30 12:52:00,
2013-04-30 07:58:00,65.3,59.3,29.84,SSW,194,6.0,8.0,81,0.00,,,0.00,Wunderground v.1.15,2013-04-30 12:58:00,
2013-04-30 08:04:00,65.6,59.6,29.84,South,175,6.0,10.0,81,0.00,,,0.00,Wunderground v.1.15,2013-04-30 13:04:00,
2013-04-30 08:10:00,65.9,59.6,29.84,SSE,168,6.0,6.0,80,0.00,,,0.00,Wunderground v.1.15,2013-04-30 13:10:00,
2013-04-30 08:15:00,66.3,59.9,29.84,South,186,6.0,10.0,80,0.00,,,0.00,Wunderground v.1.15,2013-04-30 13:15:00,
2013-04-30 08:21:00,66.8,59.7,29.84,South,172,6.0,9.0,78,0.00,,,0.00,Wunderground v.1.15,2013-04-30 13:21:00,
2013-04-30 08:27:00,67.2,60.1,29.85,SSE,168,7.0,13.0,78,0.00,,,0.00,Wunderground v.1.15,2013-04-30 13:27:00,
2013-04-30 08:33:00,67.8,60.3,29.85,SSW,194,7.0,11.0,77,0.00,,,0.00,Wunderground v.1.15,2013-04-30 13:33:00,
2013-04-30 08:39:00,68.2,60.3,29.85,SSW,198,8.0,13.0,76,0.00,,,0.00,Wunderground v.1.15,2013-04-30 13:39:00,
2013-04-30 08:45:00,68.5,60.6,29.85,South,191,9.0,13.0,76,0.00,,,0.00,Wunderground v.1.15,2013-04-30 13:45:00,
2013-04-30 08:51:00,69.1,61.2,29.85,SSW,210,8.0,8.0,76,0.00,,,0.00,Wunderground v.1.15,2013-04-30 13:51:00,
2013-04-30 08:57:00,69.5,60.5,29.85,South,191,8.0,10.0,73,0.00,,,0.00,Wunderground v.1.15,2013-04-30 13:57:00,
2013-04-30 09:03:00,70.0,61.3,29.85,South,189,9.0,12.0,74,0.00,,,0.00,Wunderground v.1.15,2013-04-30 14:03:00,
2013-04-30 09:09:00,70.5,61.4,29.85,SSW,194,8.0,12.0,73,0.00,,,0.00,Wunderground v.1.15,2013-04-30 14:09:00,
2013-04-30 09:15:00,70.7,61.2,29.84,South,181,8.0,9.0,72,0.00,,,0.00,Wunderground v.1.15,2013-04-30 14:15:00,
2013-04-30 09:21:00,71.1,61.6,29.85,SSE,167,8.0,8.0,72,0.00,,,0.00,Wunderground v.1.15,2013-04-30 14:21:00,
2013-04-30 09:27:00,71.7,62.2,29.84,SSW,192,7.0,13.0,72,0.00,,,0.00,Wunderground v.1.15,2013-04-30 14:27:00,
2013-04-30 09:33:00,72.0,61.7,29.84,SW,228,8.0,13.0,70,0.00,,,0.00,Wunderground v.1.15,2013-04-30 14:33:00,
2013-04-30 09:39:00,72.2,61.5,29.84,South,189,9.0,15.0,69,0.00,,,0.00,Wunderground v.1.15,2013-04-30 14:39:00,
2013-04-30 09:45:00,72.3,62.4,29.84,South,182,9.0,11.0,71,0.00,,,0.00,Wunderground v.1.15,2013-04-30 14:45:00,
2013-04-30 09:51:00,72.7,61.5,29.84,SSW,206,9.0,11.0,68,0.00,,,0.00,Wunderground v.1.15,2013-04-30 14:51:00,
2013-04-30 09:57:00,72.9,61.7,29.84,SSE,160,10.0,15.0,68,0.00,,,0.00,Wunderground v.1.15,2013-04-30 14:57:00,
2013-04-30 10:03:00,73.5,62.7,29.84,South,190,8.0,10.0,69,0.00,,,0.00,Wunderground v.1.15,2013-04-30 15:03:00,
2013-04-30 10:09:00,74.2,62.5,29.84,SSE,152,7.0,12.0,67,0.00,,,0.00,Wunderground v.1.15,2013-04-30 15:09:00,
2013-04-30 10:15:00,74.4,63.1,29.85,SSW,194,8.0,14.0,68,0.00,,,0.00,Wunderground v.1.15,2013-04-30 15:15:00,
2013-04-30 10:21:00,74.7,62.6,29.85,SSW,198,9.0,13.0,66,0.00,,,0.00,Wunderground v.1.15,2013-04-30 15:21:00,
2013-04-30 10:27:00,74.9,63.2,29.85,SW,215,9.0,13.0,67,0.00,,,0.00,Wunderground v.1.15,2013-04-30 15:27:00,
2013-04-30 10:33:00,75.1,63.0,29.85,SSW,196,8.0,14.0,66,0.00,,,0.00,Wunderground v.1.15,2013-04-30 15:33:00,
2013-04-30 10:39:00,75.6,62.6,29.85,South,189,7.0,14.0,64,0.00,,,0.00,Wunderground v.1.15,2013-04-30 15:39:00,
2013-04-30 10:45:00,76.4,63.3,29.85,South,189,6.0,11.0,64,0.00,,,0.00,Wunderground v.1.15,2013-04-30 15:45:00,
2013-04-30 10:51:00,76.7,62.2,29.85,SSW,193,8.0,10.0,61,0.00,,,0.00,Wunderground v.1.15,2013-04-30 15:51:00,
2013-04-30 10:57:00,77.1,63.1,29.85,South,184,7.0,10.0,62,0.00,,,0.00,Wunderground v.1.15,2013-04-30 15:57:00,
2013-04-30 11:03:00,76.9,62.0,29.85,South,170,8.0,11.0,60,0.00,,,0.00,Wunderground v.1.15,2013-04-30 16:03:00,
2013-04-30 11:09:00,77.1,62.1,29.85,SW,214,8.0,14.0,60,0.00,,,0.00,Wunderground v.1.15,2013-04-30 16:09:00,
2013-04-30 11:15:00,77.5,62.5,29.85,SSE,160,8.0,13.0,60,0.00,,,0.00,Wunderground v.1.15,2013-04-30 16:15:00,
2013-04-30 11:21:00,78.0,61.5,29.85,SSE,150,8.0,9.0,57,0.00,,,0.00,Wunderground v.1.15,2013-04-30 16:21:00,
2013-04-30 11:27:00,77.8,61.8,29.85,SSE,153,9.0,12.0,58,0.00,,,0.00,Wunderground v.1.15,2013-04-30 16:27:00,
2013-04-30 11:33:00,77.9,61.9,29.85,South,191,8.0,11.0,58,0.00,,,0.00,Wunderground v.1.15,2013-04-30 16:33:00,
2013-04-30 11:39:00,77.9,61.9,29.85,SSW,210,9.0,14.0,58,0.00,,,0.00,Wunderground v.1.15,2013-04-30 16:39:00,
2013-04-30 11:45:00,78.3,61.8,29.85,South,188,7.0,10.0,57,0.00,,,0.00,Wunderground v.1.15,2013-04-30 16:45:00,
2013-04-30 11:50:00,78.7,62.2,29.85,WSW,237,7.0,7.0,57,0.00,,,0.00,Wunderground v.1.15,2013-04-30 16:50:00,
2013-04-30 11:56:00,79.0,62.0,29.84,South,181,8.0,11.0,56,0.00,,,0.00,Wunderground v.1.15,2013-04-30 16:56:00,
2013-04-30 12:02:00,78.9,61.9,29.85,SSW,192,9.0,10.0,56,0.00,,,0.00,Wunderground v.1.15,2013-04-30 17:02:00,
2013-04-30 12:08:00,79.3,62.7,29.84,SW,214,8.0,10.0,57,0.00,,,0.00,Wunderground v.1.15,2013-04-30 17:08:00,
2013-04-30 12:14:00,79.7,62.6,29.84,South,175,6.0,14.0,56,0.00,,,0.00,Wunderground v.1.15,2013-04-30 17:14:00,
2013-04-30 12:20:00,79.9,62.3,29.84,South,173,7.0,7.0,55,0.00,,,0.00,Wunderground v.1.15,2013-04-30 17:20:00,
2013-04-30 12:26:00,79.9,61.8,29.84,South,171,7.0,11.0,54,0.00,,,0.00,Wunderground v.1.15,2013-04-30 17:26:00,
2013-04-30 12:32:00,80.1,61.4,29.84,SSW,194,8.0,10.0,53,0.00,,,0.00,Wunderground v.1.15,2013-04-30 17:32:00,
2013-04-30 12:38:00,80.2,62.0,29.84,South,182,9.0,10.0,54,0.00,,,0.00,Wunderground v.1.15,2013-04-30 17:38:00,
2013-04-30 12:44:00,80.2,61.0,29.84,SSE,154,9.0,11.0,52,0.00,,,0.00,Wunderground v.1.15,2013-04-30 17:44:00,
2013-04-30 12:50:00,80.4,61.2,29.84,South,177,8.0,11.0,52,0.00,,,0.00,Wunderground v.1.15,2013-04-30 17:50:00,
2013-04-30 12:56:00,81.0,63.3,29.84,SE,141,7.0,11.0,55,0.00,,,0.00,Wunderground v.1.15,2013-04-30 17:56:00,
2013-04-30 13:02:00,81.5,61.6,29.83,South,190,6.0,7.0,51,0.00,,,0.00,Wunderground v.1.15,2013-04-30 18:02:00,
2013-04-30 13:08:00,81.4,62.6,29.83,South,172,7.0,11.0,53,0.00,,,0.00,Wunderground v.1.15,2013-04-30 18:08:00,
2013-04-30 13:14:00,81.5,63.3,29.83,SE,136,8.0,10.0,54,0.00,,,0.00,Wunderground v.1.15,2013-04-30 18:14:00,
2013-04-30 13:20:00,81.8,62.5,29.83,South,178,6.0,6.0,52,0.00,,,0.00,Wunderground v.1.15,2013-04-30 18:20:00,
2013-04-30 13:26:00,81.7,62.4,29.83,South,180,7.0,9.0,52,0.00,,,0.00,Wunderground v.1.15,2013-04-30 18:26:00,
2013-04-30 13:32:00,81.9,62.5,29.83,ESE,119,6.0,10.0,52,0.00,,,0.00,Wunderground v.1.15,2013-04-30 18:32:00,
2013-04-30 13:38:00,82.5,63.1,29.83,South,185,5.0,12.0,52,0.00,,,0.00,Wunderground v.1.15,2013-04-30 18:38:00,
2013-04-30 13:44:00,82.4,62.5,29.83,SSE,160,7.0,12.0,51,0.00,,,0.00,Wunderground v.1.15,2013-04-30 18:44:00,
2013-04-30 13:50:00,82.4,61.3,29.83,South,187,7.0,7.0,49,0.00,,,0.00,Wunderground v.1.15,2013-04-30 18:50:00,
2013-04-30 13:56:00,82.8,61.7,29.83,SSE,153,6.0,9.0,49,0.00,,,0.00,Wunderground v.1.15,2013-04-30 18:56:00,
2013-04-30 14:02:00,83.0,63.6,29.83,SSW,192,6.0,8.0,52,0.00,,,0.00,Wunderground v.1.15,2013-04-30 19:02:00,
2013-04-30 14:08:00,83.5,61.7,29.83,SE,131,5.0,8.0,48,0.00,,,0.00,Wunderground v.1.15,2013-04-30 19:08:00,
2013-04-30 14:14:00,83.3,61.0,29.83,ESE,119,7.0,12.0,47,0.00,,,0.00,Wunderground v.1.15,2013-04-30 19:14:00,
2013-04-30 14:20:00,83.2,60.9,29.83,South,179,7.0,7.0,47,0.00,,,0.00,Wunderground v.1.15,2013-04-30 19:20:00,
2013-04-30 14:26:00,83.2,60.9,29.83,SSE,163,7.0,12.0,47,0.00,,,0.00,Wunderground v.1.15,2013-04-30 19:26:00,
2013-04-30 14:31:00,83.3,59.7,29.83,SE,141,8.0,11.0,45,0.00,,,0.00,Wunderground v.1.15,2013-04-30 19:31:00,
2013-04-30 14:37:00,83.7,58.8,29.82,South,174,8.0,16.0,43,0.00,,,0.00,Wunderground v.1.15,2013-04-30 19:37:00,
2013-04-30 14:43:00,83.6,61.2,29.82,SE,131,9.0,15.0,47,0.00,,,0.00,Wunderground v.1.15,2013-04-30 19:43:00,
2013-04-30 14:49:00,83.7,60.7,29.82,SSW,205,9.0,15.0,46,0.00,,,0.00,Wunderground v.1.15,2013-04-30 19:49:00,
2013-04-30 14:55:00,83.8,62.6,29.82,SE,136,8.0,12.0,49,0.00,,,0.00,Wunderground v.1.15,2013-04-30 19:55:00,
2013-04-30 15:00:00,83.9,62.1,29.82,SE,146,8.0,8.0,48,0.00,,,0.00,Wunderground v.1.15,2013-04-30 20:00:00,
2013-04-30 15:06:00,84.0,62.2,29.81,SE,132,8.0,15.0,48,0.00,,,0.00,Wunderground v.1.15,2013-04-30 20:06:00,
2013-04-30 15:11:00,83.5,62.3,29.81,SE,146,8.0,14.0,49,0.00,,,0.00,Wunderground v.1.15,2013-04-30 20:11:00,
2013-04-30 15:17:00,83.3,62.1,29.81,South,183,9.0,14.0,49,0.00,,,0.00,Wunderground v.1.15,2013-04-30 20:17:00,
2013-04-30 15:22:00,83.4,60.4,29.81,ESE,121,8.0,19.0,46,0.00,,,0.00,Wunderground v.1.15,2013-04-30 20:22:00,
2013-04-30 15:28:00,83.5,60.5,29.81,SSE,165,8.0,19.0,46,0.00,,,0.00,Wunderground v.1.15,2013-04-30 20:28:00,
2013-04-30 15:34:00,83.7,59.5,29.81,SE,136,8.0,15.0,44,0.00,,,0.00,Wunderground v.1.15,2013-04-30 20:34:00,
2013-04-30 15:40:00,83.8,59.6,29.81,SSE,150,9.0,9.0,44,0.00,,,0.00,Wunderground v.1.15,2013-04-30 20:40:00,
2013-04-30 15:46:00,83.5,59.9,29.81,SSW,199,10.0,13.0,45,0.00,,,0.00,Wunderground v.1.15,2013-04-30 20:46:00,
2013-04-30 15:52:00,83.7,58.8,29.81,South,171,9.0,20.0,43,0.00,,,0.00,Wunderground v.1.15,2013-04-30 20:52:00,
2013-04-30 15:58:00,83.5,58.0,29.81,SSE,161,11.0,20.0,42,0.00,,,0.00,Wunderground v.1.15,2013-04-30 20:58:00,
2013-04-30 16:04:00,83.5,58.0,29.81,SE,141,11.0,16.0,42,0.00,,,0.00,Wunderground v.1.15,2013-04-30 21:04:00,
2013-04-30 16:10:00,83.3,59.1,29.81,East,99,11.0,12.0,44,0.00,,,0.00,Wunderground v.1.15,2013-04-30 21:10:00,
2013-04-30 16:16:00,83.1,59.6,29.82,SE,146,10.0,19.0,45,0.00,,,0.00,Wunderground v.1.15,2013-04-30 21:16:00,
2013-04-30 16:22:00,83.0,58.8,29.82,SSE,153,10.0,15.0,44,0.00,,,0.00,Wunderground v.1.15,2013-04-30 21:22:00,
2013-04-30 16:28:00,82.9,59.4,29.82,SSE,168,11.0,21.0,45,0.00,,,0.00,Wunderground v.1.15,2013-04-30 21:28:00,
2013-04-30 16:34:00,82.9,59.4,29.82,South,176,10.0,13.0,45,0.00,,,0.00,Wunderground v.1.15,2013-04-30 21:34:00,
2013-04-30 16:40:00,83.0,58.8,29.82,SE,146,10.0,17.0,44,0.00,,,0.00,Wunderground v.1.15,2013-04-30 21:40:00,
2013-04-30 16:46:00,83.2,58.4,29.82,South,171,10.0,17.0,43,0.00,,,0.00,Wunderground v.1.15,2013-04-30 21:46:00,
2013-04-30 16:52:00,83.3,59.1,29.82,SSE,151,9.0,13.0,44,0.00,,,0.00,Wunderground v.1.15,2013-04-30 21:52:00,
2013-04-30 16:58:00,83.3,57.8,29.83,SSE,152,8.0,13.0,42,0.00,,,0.00,Wunderground v.1.15,2013-04-30 21:58:00,
2013-04-30 17:04:00,83.2,57.7,29.83,SSE,159,9.0,10.0,42,0.00,,,0.00,Wunderground v.1.15,2013-04-30 22:04:00,
2013-04-30 17:10:00,83.4,57.9,29.83,East,100,9.0,11.0,42,0.00,,,0.00,Wunderground v.1.15,2013-04-30 22:10:00,
2013-04-30 17:16:00,83.3,59.1,29.83,SE,146,9.0,15.0,44,0.00,,,0.00,Wunderground v.1.15,2013-04-30 22:16:00,
2013-04-30 17:21:00,83.2,58.4,29.83,SE,127,10.0,15.0,43,0.00,,,0.00,Wunderground v.1.15,2013-04-30 22:21:00,
2013-04-30 17:27:00,83.0,58.8,29.83,SE,131,9.0,15.0,44,0.00,,,0.00,Wunderground v.1.15,2013-04-30 22:27:00,
2013-04-30 17:33:00,82.7,57.9,29.84,SSE,154,9.0,18.0,43,0.00,,,0.00,Wunderground v.1.15,2013-04-30 22:33:00,
2013-04-30 17:39:00,82.5,57.7,29.84,SSE,163,10.0,18.0,43,0.00,,,0.00,Wunderground v.1.15,2013-04-30 22:39:00,
2013-04-30 17:45:00,82.5,57.7,29.84,South,190,9.0,13.0,43,0.00,,,0.00,Wunderground v.1.15,2013-04-30 22:45:00,
2013-04-30 17:51:00,82.6,59.1,29.84,SSE,153,7.0,7.0,45,0.00,,,0.00,Wunderground v.1.15,2013-04-30 22:51:00,
2013-04-30 17:57:00,82.1,58.0,29.84,SSE,163,6.0,14.0,44,0.00,,,0.00,Wunderground v.1.15,2013-04-30 22:57:00,
2013-04-30 18:03:00,81.5,56.8,29.84,SE,141,7.0,12.0,43,0.00,,,0.00,Wunderground v.1.15,2013-04-30 23:03:00,
2013-04-30 18:09:00,81.2,56.6,29.84,East,89,9.0,14.0,43,0.00,,,0.00,Wunderground v.1.15,2013-04-30 23:09:00,
2013-04-30 18:15:00,81.1,57.7,29.84,South,173,9.0,13.0,45,0.00,,,0.00,Wunderground v.1.15,2013-04-30 23:15:00,
2013-04-30 18:21:00,81.0,57.7,29.84,SSE,150,8.0,10.0,45,0.00,,,0.00,Wunderground v.1.15,2013-04-30 23:21:00,
2013-04-30 18:27:00,80.9,56.9,29.84,South,179,8.0,13.0,44,0.00,,,0.00,Wunderground v.1.15,2013-04-30 23:27:00,
2013-04-30 18:33:00,80.8,57.5,29.84,SE,146,7.0,12.0,45,0.00,,,0.00,Wunderground v.1.15,2013-04-30 23:33:00,
2013-04-30 18:39:00,80.6,56.7,29.83,SSE,158,7.0,12.0,44,0.00,,,0.00,Wunderground v.1.15,2013-04-30 23:39:00,
2013-04-30 18:45:00,80.2,56.9,29.84,SSE,161,7.0,14.0,45,0.00,,,0.00,Wunderground v.1.15,2013-04-30 23:45:00,
2013-04-30 18:51:00,79.9,57.9,29.84,South,181,7.0,7.0,47,0.00,,,0.00,Wunderground v.1.15,2013-04-30 23:51:00,
2013-04-30 18:57:00,79.6,58.8,29.84,SSE,163,7.0,11.0,49,0.00,,,0.00,Wunderground v.1.15,2013-04-30 23:57:00,
2013-04-30 19:03:00,79.3,59.0,29.84,SSE,156,6.0,10.0,50,0.00,,,0.00,Wunderground v.1.15,2013-05-01 00:03:00,
2013-04-30 19:09:00,78.7,59.0,29.85,SE,141,7.0,10.0,51,0.00,,,0.00,Wunderground v.1.15,2013-05-01 00:09:00,
2013-04-30 19:15:00,78.2,59.1,29.85,ESE,114,7.0,8.0,52,0.00,,,0.00,Wunderground v.1.15,2013-05-01 00:15:00,
2013-04-30 19:21:00,77.7,59.2,29.85,South,179,6.0,10.0,53,0.00,,,0.00,Wunderground v.1.15,2013-05-01 00:21:00,
2013-04-30 19:27:00,77.3,59.4,29.85,SSE,150,7.0,12.0,54,0.00,,,0.00,Wunderground v.1.15,2013-05-01 00:27:00,
2013-04-30 19:33:00,76.7,59.3,29.85,South,169,7.0,11.0,55,0.00,,,0.00,Wunderground v.1.15,2013-05-01 00:33:00,
2013-04-30 19:39:00,76.2,59.4,29.85,SE,136,6.0,11.0,56,0.00,,,0.00,Wunderground v.1.15,2013-05-01 00:39:00,
2013-04-30 19:45:00,75.8,59.5,29.86,ESE,123,5.0,10.0,57,0.00,,,0.00,Wunderground v.1.15,2013-05-01 00:45:00,
2013-04-30 19:51:00,75.3,59.5,29.86,South,172,5.0,6.0,58,0.00,,,0.00,Wunderground v.1.15,2013-05-01 00:51:00,
2013-04-30 19:57:00,74.9,59.6,29.86,SSE,158,5.0,7.0,59,0.00,,,0.00,Wunderground v.1.15,2013-05-01 00:57:00,
2013-04-30 20:03:00,74.6,59.3,29.86,SSE,158,6.0,9.0,59,0.00,,,0.00,Wunderground v.1.15,2013-05-01 01:03:00,
2013-04-30 20:08:00,74.3,59.0,29.86,SSE,158,6.0,9.0,59,0.00,,,0.00,Wunderground v.1.15,2013-05-01 01:08:00,
2013-04-30 20:14:00,74.1,59.3,29.86,SE,146,5.0,12.0,60,0.00,,,0.00,Wunderground v.1.15,2013-05-01 01:14:00,
2013-04-30 20:20:00,73.8,59.0,29.87,South,169,6.0,6.0,60,0.00,,,0.00,Wunderground v.1.15,2013-05-01 01:20:00,
2013-04-30 20:26:00,73.6,59.3,29.87,SE,146,5.0,7.0,61,0.00,,,0.00,Wunderground v.1.15,2013-05-01 01:26:00,
2013-04-30 20:32:00,73.3,59.0,29.87,South,175,5.0,8.0,61,0.00,,,0.00,Wunderground v.1.15,2013-05-01 01:32:00,
2013-04-30 20:38:00,73.0,58.8,29.88,SSE,152,5.0,8.0,61,0.00,,,0.00,Wunderground v.1.15,2013-05-01 01:38:00,
2013-04-30 20:44:00,72.7,58.9,29.88,SSW,195,5.0,6.0,62,0.00,,,0.00,Wunderground v.1.15,2013-05-01 01:44:00,
2013-04-30 20:50:00,72.5,58.7,29.88,South,176,5.0,5.0,62,0.00,,,0.00,Wunderground v.1.15,2013-05-01 01:50:00,
2013-04-30 20:56:00,72.2,58.5,29.88,SSE,168,5.0,11.0,62,0.00,,,0.00,Wunderground v.1.15,2013-05-01 01:56:00,
2013-04-30 21:02:00,72.0,58.7,29.88,SE,146,6.0,8.0,63,0.00,,,0.00,Wunderground v.1.15,2013-05-01 02:02:00,
2013-04-30 21:08:00,71.8,58.5,29.88,SE,146,7.0,10.0,63,0.00,,,0.00,Wunderground v.1.15,2013-05-01 02:08:00,
2013-04-30 21:14:00,71.5,58.7,29.88,SSE,154,6.0,12.0,64,0.00,,,0.00,Wunderground v.1.15,2013-05-01 02:14:00,
2013-04-30 21:20:00,71.3,58.5,29.89,SSE,152,6.0,6.0,64,0.00,,,0.00,Wunderground v.1.15,2013-05-01 02:20:00,
2013-04-30 21:26:00,71.1,58.3,29.89,South,172,6.0,6.0,64,0.00,,,0.00,Wunderground v.1.15,2013-05-01 02:26:00,
2013-04-30 21:32:00,70.9,58.5,29.89,SSE,167,7.0,7.0,65,0.00,,,0.00,Wunderground v.1.15,2013-05-01 02:32:00,
2013-04-30 21:38:00,70.8,58.4,29.89,SSE,156,6.0,10.0,65,0.00,,,0.00,Wunderground v.1.15,2013-05-01 02:38:00,
2013-04-30 21:44:00,70.7,58.8,29.89,SSE,160,6.0,10.0,66,0.00,,,0.00,Wunderground v.1.15,2013-05-01 02:44:00,
2013-04-30 21:50:00,70.7,58.4,29.90,SE,141,6.0,6.0,65,0.00,,,0.00,Wunderground v.1.15,2013-05-01 02:50:00,
2013-04-30 21:56:00,70.5,58.6,29.90,SSE,152,5.0,10.0,66,0.00,,,0.00,Wunderground v.1.15,2013-05-01 02:56:00,
2013-04-30 22:02:00,70.3,58.4,29.90,SSE,165,6.0,8.0,66,0.00,,,0.00,Wunderground v.1.15,2013-05-01 03:02:00,
2013-04-30 22:08:00,70.2,58.3,29.90,SE,136,6.0,12.0,66,0.00,,,0.00,Wunderground v.1.15,2013-05-01 03:08:00,
2013-04-30 22:14:00,70.2,58.7,29.90,SSW,195,6.0,6.0,67,0.00,,,0.00,Wunderground v.1.15,2013-05-01 03:14:00,
2013-04-30 22:20:00,70.2,58.7,29.90,SE,141,7.0,9.0,67,0.00,,,0.00,Wunderground v.1.15,2013-05-01 03:20:00,
2013-04-30 22:26:00,70.2,58.7,29.91,SE,141,8.0,10.0,67,0.00,,,0.00,Wunderground v.1.15,2013-05-01 03:26:00,
2013-04-30 22:32:00,70.1,58.6,29.91,SSE,152,7.0,11.0,67,0.00,,,0.00,Wunderground v.1.15,2013-05-01 03:32:00,
2013-04-30 22:38:00,69.9,58.9,29.91,South,179,7.0,11.0,68,0.00,,,0.00,Wunderground v.1.15,2013-05-01 03:38:00,
2013-04-30 22:43:00,69.8,58.8,29.91,South,171,7.0,8.0,68,0.00,,,0.00,Wunderground v.1.15,2013-05-01 03:43:00,
2013-04-30 22:49:00,69.5,58.9,29.91,South,173,7.0,9.0,69,0.00,,,0.00,Wunderground v.1.15,2013-05-01 03:49:00,
2013-04-30 22:54:00,69.3,59.1,29.91,South,182,6.0,9.0,70,0.00,,,0.00,Wunderground v.1.15,2013-05-01 03:54:00,
2013-04-30 23:00:00,69.1,58.9,29.91,South,179,6.0,6.0,70,0.00,,,0.00,Wunderground v.1.15,2013-05-01 04:00:00,
2013-04-30 23:01:00,69.1,58.9,29.91,SSE,150,6.0,7.0,70,0.00,,,0.00,Wunderground v.1.15,2013-05-01 04:01:00,
2013-04-30 23:02:00,69.1,58.9,29.91,SE,141,6.0,9.0,70,0.00,,,0.00,Wunderground v.1.15,2013-05-01 04:02:00,
2013-04-30 23:03:00,69.0,58.8,29.91,SSE,167,6.0,9.0,70,0.00,,,0.00,Wunderground v.1.15,2013-05-01 04:03:00,
2013-04-30 23:08:00,68.9,59.1,29.91,South,179,6.0,9.0,71,0.00,,,0.00,Wunderground v.1.15,2013-05-01 04:08:00,
2013-04-30 23:14:00,68.8,59.0,29.91,SSE,158,6.0,10.0,71,0.00,,,0.00,Wunderground v.1.15,2013-05-01 04:14:00,
2013-04-30 23:15:00,68.8,59.0,29.91,SSE,167,6.0,10.0,71,0.00,,,0.00,Wunderground v.1.15,2013-05-01 04:15:00,
2013-04-30 23:21:00,68.9,59.1,29.91,SSE,162,6.0,8.0,71,0.00,,,0.00,Wunderground v.1.15,2013-05-01 04:21:00,
2013-04-30 23:27:00,68.8,59.0,29.91,South,184,6.0,8.0,71,0.00,,,0.00,Wunderground v.1.15,2013-05-01 04:27:00,
2013-04-30 23:33:00,68.7,58.9,29.91,South,180,6.0,8.0,71,0.00,,,0.00,Wunderground v.1.15,2013-05-01 04:33:00,
2013-04-30 23:39:00,68.5,58.7,29.92,South,169,6.0,10.0,71,0.00,,,0.00,Wunderground v.1.15,2013-05-01 04:39:00,
2013-04-30 23:45:00,68.3,58.9,29.92,South,183,6.0,9.0,72,0.00,,,0.00,Wunderground v.1.15,2013-05-01 04:45:00,
2013-04-30 23:51:00,68.1,58.7,29.92,South,178,5.0,8.0,72,0.00,,,0.00,Wunderground v.1.15,2013-05-01 04:51:00,
2013-04-30 23:57:00,67.9,58.5,29.92,South,181,6.0,8.0,72,0.00,,,0.00,Wunderground v.1.15,2013-05-01 04:57:00,